Year,Month,Day,Hour,Minute,Value (Times are PST for temperature in C)
2011,01,15,00,00,10.40
2011,01,15,00,01,10.50
2011,01,15,00,02,10.40
2011,01,15,00,03,10.40
2011,01,15,00,04,10.50
2011,01,15,00,05,10.40
2011,01,15,00,06,10.40
2011,01,15,00,07,10.40
2011,01,15,00,08,10.30
2011,01,15,00,09,10.30
2011,01,15,00,10,10.30
2011,01,15,00,11,10.30
2011,01,15,00,12,10.40
2011,01,15,00,13,10.40
2011,01,15,00,14,10.40
2011,01,15,00,15,10.40
2011,01,15,00,16,10.40
2011,01,15,00,17,10.40
2011,01,15,00,18,10.30
2011,01,15,00,19,10.30
2011,01,15,00,20,10.30
2011,01,15,00,21,10.20
2011,01,15,00,22,10.10
2011,01,15,00,23,10.00
2011,01,15,00,24,10.00
2011,01,15,00,25,9.90
2011,01,15,00,26,9.90
2011,01,15,00,27,9.80
2011,01,15,00,28,9.60
2011,01,15,00,29,9.50
2011,01,15,00,30,9.40
2011,01,15,00,31,9.30
2011,01,15,00,32,9.30
2011,01,15,00,33,9.20
2011,01,15,00,34,9.30
2011,01,15,00,35,9.30
2011,01,15,00,36,9.30
2011,01,15,00,37,9.30
2011,01,15,00,38,9.40
2011,01,15,00,39,9.40
2011,01,15,00,40,9.40
2011,01,15,00,41,9.50
2011,01,15,00,42,9.50
2011,01,15,00,43,9.60
2011,01,15,00,44,9.60
2011,01,15,00,45,9.70
2011,01,15,00,46,9.80
2011,01,15,00,47,9.90
2011,01,15,00,48,10.00
2011,01,15,00,49,10.10
2011,01,15,00,50,10.20
2011,01,15,00,51,10.20
2011,01,15,00,52,10.30
2011,01,15,00,53,10.30
2011,01,15,00,54,10.30
2011,01,15,00,55,10.30
2011,01,15,00,56,10.30
2011,01,15,00,57,10.30
2011,01,15,00,58,10.30
2011,01,15,00,59,10.40
2011,01,15,01,00,10.40
2011,01,15,01,01,10.40
2011,01,15,01,02,10.40
2011,01,15,01,03,10.40
2011,01,15,01,04,10.50
2011,01,15,01,05,10.40
2011,01,15,01,06,10.30
2011,01,15,01,07,10.30
2011,01,15,01,08,10.20
2011,01,15,01,09,10.20
2011,01,15,01,10,10.20
2011,01,15,01,11,10.20
2011,01,15,01,12,10.10
2011,01,15,01,13,10.20
2011,01,15,01,14,10.20
2011,01,15,01,15,10.20
2011,01,15,01,16,10.20
2011,01,15,01,17,10.30
2011,01,15,01,18,10.40
2011,01,15,01,19,10.40
2011,01,15,01,20,10.40
2011,01,15,01,21,10.30
2011,01,15,01,22,10.20
2011,01,15,01,23,10.20
2011,01,15,01,24,10.20
2011,01,15,01,25,10.10
2011,01,15,01,26,10.10
2011,01,15,01,27,10.10
2011,01,15,01,28,10.10
2011,01,15,01,29,10.10
2011,01,15,01,30,10.10
2011,01,15,01,31,10.10
2011,01,15,01,32,10.10
2011,01,15,01,33,10.10
2011,01,15,01,34,10.10
2011,01,15,01,35,10.10
2011,01,15,01,36,10.10
2011,01,15,01,37,10.20
2011,01,15,01,38,10.20
2011,01,15,01,39,10.10
2011,01,15,01,40,10.00
2011,01,15,01,41,9.90
2011,01,15,01,42,9.90
2011,01,15,01,43,9.90
2011,01,15,01,44,9.80
2011,01,15,01,45,9.80
2011,01,15,01,46,9.90
2011,01,15,01,47,10.00
2011,01,15,01,48,10.10
2011,01,15,01,49,10.10
2011,01,15,01,50,10.20
2011,01,15,01,51,10.20
2011,01,15,01,52,10.20
2011,01,15,01,53,10.20
2011,01,15,01,54,10.10
2011,01,15,01,55,10.10
2011,01,15,01,56,10.10
2011,01,15,01,57,10.00
2011,01,15,01,58,9.90
2011,01,15,01,59,9.90
2011,01,15,02,00,9.90
2011,01,15,02,01,9.90
2011,01,15,02,02,9.90
2011,01,15,02,03,10.00
2011,01,15,02,04,10.10
2011,01,15,02,05,10.10
2011,01,15,02,06,10.10
2011,01,15,02,07,10.10
2011,01,15,02,08,10.10
2011,01,15,02,09,10.10
2011,01,15,02,10,10.10
2011,01,15,02,11,10.10
2011,01,15,02,12,10.10
2011,01,15,02,13,10.00
2011,01,15,02,14,10.00
2011,01,15,02,15,10.00
2011,01,15,02,16,10.00
2011,01,15,02,17,10.00
2011,01,15,02,18,10.00
2011,01,15,02,19,10.00
2011,01,15,02,20,10.00
2011,01,15,02,21,10.00
2011,01,15,02,22,10.10
2011,01,15,02,23,10.00
2011,01,15,02,24,10.10
2011,01,15,02,25,10.00
2011,01,15,02,26,10.10
2011,01,15,02,27,10.10
2011,01,15,02,28,10.00
2011,01,15,02,29,10.00
2011,01,15,02,30,10.00
2011,01,15,02,31,10.00
2011,01,15,02,32,9.90
2011,01,15,02,33,9.90
2011,01,15,02,34,9.90
2011,01,15,02,35,10.00
2011,01,15,02,36,10.00
2011,01,15,02,37,10.00
2011,01,15,02,38,10.00
2011,01,15,02,39,10.00
2011,01,15,02,40,10.10
2011,01,15,02,41,10.10
2011,01,15,02,42,10.10
2011,01,15,02,43,10.10
2011,01,15,02,44,10.10
2011,01,15,02,45,10.10
2011,01,15,02,46,10.10
2011,01,15,02,47,10.10
2011,01,15,02,48,10.10
2011,01,15,02,49,10.10
2011,01,15,02,50,10.00
2011,01,15,02,51,10.10
2011,01,15,02,52,10.10
2011,01,15,02,53,10.10
2011,01,15,02,54,10.10
2011,01,15,02,55,10.10
2011,01,15,02,56,10.00
2011,01,15,02,57,10.10
2011,01,15,02,58,10.10
2011,01,15,02,59,10.10
2011,01,15,03,00,10.10
2011,01,15,03,01,10.10
2011,01,15,03,02,10.10
2011,01,15,03,03,10.20
2011,01,15,03,04,10.10
2011,01,15,03,05,10.10
2011,01,15,03,06,10.20
2011,01,15,03,07,10.20
2011,01,15,03,08,10.20
2011,01,15,03,09,10.10
2011,01,15,03,10,10.10
2011,01,15,03,11,10.10
2011,01,15,03,12,10.10
2011,01,15,03,13,10.10
2011,01,15,03,14,10.10
2011,01,15,03,15,10.00
2011,01,15,03,16,10.00
2011,01,15,03,17,9.90
2011,01,15,03,18,9.90
2011,01,15,03,19,9.90
2011,01,15,03,20,9.90
2011,01,15,03,21,9.90
2011,01,15,03,22,9.90
2011,01,15,03,23,9.80
2011,01,15,03,24,9.80
2011,01,15,03,25,9.90
2011,01,15,03,26,9.90
2011,01,15,03,27,9.90
2011,01,15,03,28,9.90
2011,01,15,03,29,9.90
2011,01,15,03,30,9.80
2011,01,15,03,31,9.80
2011,01,15,03,32,9.80
2011,01,15,03,33,9.80
2011,01,15,03,34,9.80
2011,01,15,03,35,9.80
2011,01,15,03,36,9.80
2011,01,15,03,37,9.80
2011,01,15,03,38,9.80
2011,01,15,03,39,9.80
2011,01,15,03,40,9.90
2011,01,15,03,41,10.00
2011,01,15,03,42,10.00
2011,01,15,03,43,10.10
2011,01,15,03,44,10.10
2011,01,15,03,45,10.10
2011,01,15,03,46,10.10
2011,01,15,03,47,10.10
2011,01,15,03,48,10.10
2011,01,15,03,49,10.10
2011,01,15,03,50,10.10
2011,01,15,03,51,10.10
2011,01,15,03,52,10.10
2011,01,15,03,53,10.10
2011,01,15,03,54,10.00
2011,01,15,03,55,10.00
2011,01,15,03,56,9.90
2011,01,15,03,57,9.90
2011,01,15,03,58,9.80
2011,01,15,03,59,9.70
2011,01,15,04,00,9.60
2011,01,15,04,01,9.50
2011,01,15,04,02,9.40
2011,01,15,04,03,9.30
2011,01,15,04,04,9.20
2011,01,15,04,05,9.20
2011,01,15,04,06,9.10
2011,01,15,04,07,9.10
2011,01,15,04,08,9.00
2011,01,15,04,09,9.00
2011,01,15,04,10,8.90
2011,01,15,04,11,8.90
2011,01,15,04,12,8.80
2011,01,15,04,13,8.80
2011,01,15,04,14,8.80
2011,01,15,04,15,8.70
2011,01,15,04,16,8.70
2011,01,15,04,17,8.70
2011,01,15,04,18,8.60
2011,01,15,04,19,8.60
2011,01,15,04,20,8.60
2011,01,15,04,21,8.50
2011,01,15,04,22,8.50
2011,01,15,04,23,8.50
2011,01,15,04,24,8.50
2011,01,15,04,25,8.50
2011,01,15,04,26,8.40
2011,01,15,04,27,8.40
2011,01,15,04,28,8.40
2011,01,15,04,29,8.30
2011,01,15,04,30,8.30
2011,01,15,04,31,8.30
2011,01,15,04,32,8.30
2011,01,15,04,33,8.30
2011,01,15,04,34,8.30
2011,01,15,04,35,8.30
2011,01,15,04,36,8.30
2011,01,15,04,37,8.30
2011,01,15,04,38,8.20
2011,01,15,04,39,8.20
2011,01,15,04,40,8.20
2011,01,15,04,41,8.30
2011,01,15,04,42,8.30
2011,01,15,04,43,8.30
2011,01,15,04,44,8.30
2011,01,15,04,45,8.20
2011,01,15,04,46,8.20
2011,01,15,04,47,8.20
2011,01,15,04,48,8.20
2011,01,15,04,49,8.20
2011,01,15,04,50,8.20
2011,01,15,04,51,8.20
2011,01,15,04,52,8.20
2011,01,15,04,53,8.20
2011,01,15,04,54,8.20
2011,01,15,04,55,8.20
2011,01,15,04,56,8.20
2011,01,15,04,57,8.30
2011,01,15,04,58,8.30
2011,01,15,04,59,8.30
2011,01,15,05,00,8.30
2011,01,15,05,01,8.30
2011,01,15,05,02,8.30
2011,01,15,05,03,8.30
2011,01,15,05,04,8.20
2011,01,15,05,05,8.20
2011,01,15,05,06,8.20
2011,01,15,05,07,8.20
2011,01,15,05,08,8.20
2011,01,15,05,09,8.20
2011,01,15,05,10,8.20
2011,01,15,05,11,8.10
2011,01,15,05,12,8.10
2011,01,15,05,13,8.10
2011,01,15,05,14,8.10
2011,01,15,05,15,8.10
2011,01,15,05,16,8.10
2011,01,15,05,17,8.20
2011,01,15,05,18,8.20
2011,01,15,05,19,8.20
2011,01,15,05,20,8.20
2011,01,15,05,21,8.20
2011,01,15,05,22,8.20
2011,01,15,05,23,8.20
2011,01,15,05,24,8.20
2011,01,15,05,25,8.20
2011,01,15,05,26,8.20
2011,01,15,05,27,8.20
2011,01,15,05,28,8.20
2011,01,15,05,29,8.20
2011,01,15,05,30,8.20
2011,01,15,05,31,8.20
2011,01,15,05,32,8.20
2011,01,15,05,33,8.20
2011,01,15,05,34,8.20
2011,01,15,05,35,8.20
2011,01,15,05,36,8.20
2011,01,15,05,37,8.20
2011,01,15,05,38,8.20
2011,01,15,05,39,8.20
2011,01,15,05,40,8.20
2011,01,15,05,41,8.20
2011,01,15,05,42,8.20
2011,01,15,05,43,8.20
2011,01,15,05,44,8.20
2011,01,15,05,45,8.20
2011,01,15,05,46,8.20
2011,01,15,05,47,8.20
2011,01,15,05,48,8.10
2011,01,15,05,49,8.10
2011,01,15,05,50,8.10
2011,01,15,05,51,8.10
2011,01,15,05,52,8.10
2011,01,15,05,53,8.10
2011,01,15,05,54,8.10
2011,01,15,05,55,8.00
2011,01,15,05,56,8.00
2011,01,15,05,57,8.00
2011,01,15,05,58,8.00
2011,01,15,05,59,8.00
2011,01,15,06,00,8.00
2011,01,15,06,01,8.00
2011,01,15,06,02,8.00
2011,01,15,06,03,8.00
2011,01,15,06,04,8.00
2011,01,15,06,05,8.00
2011,01,15,06,06,8.00
2011,01,15,06,07,7.90
2011,01,15,06,08,7.90
2011,01,15,06,09,7.90
2011,01,15,06,10,8.00
2011,01,15,06,11,8.00
2011,01,15,06,12,8.00
2011,01,15,06,13,7.90
2011,01,15,06,14,7.90
2011,01,15,06,15,7.90
2011,01,15,06,16,7.90
2011,01,15,06,17,7.90
2011,01,15,06,18,7.90
2011,01,15,06,19,7.90
2011,01,15,06,20,7.90
2011,01,15,06,21,7.90
2011,01,15,06,22,7.80
2011,01,15,06,23,7.80
2011,01,15,06,24,7.80
2011,01,15,06,25,7.80
2011,01,15,06,26,7.80
2011,01,15,06,27,7.80
2011,01,15,06,28,7.70
2011,01,15,06,29,7.80
2011,01,15,06,30,7.80
2011,01,15,06,31,7.70
2011,01,15,06,32,7.60
2011,01,15,06,33,7.50
2011,01,15,06,34,7.50
2011,01,15,06,35,7.50
2011,01,15,06,36,7.40
2011,01,15,06,37,7.50
2011,01,15,06,38,7.50
2011,01,15,06,39,7.50
2011,01,15,06,40,7.50
2011,01,15,06,41,7.40
2011,01,15,06,42,7.30
2011,01,15,06,43,7.20
2011,01,15,06,44,7.20
2011,01,15,06,45,7.20
2011,01,15,06,46,7.20
2011,01,15,06,47,7.20
2011,01,15,06,48,7.20
2011,01,15,06,49,7.20
2011,01,15,06,50,7.30
2011,01,15,06,51,7.20
2011,01,15,06,52,7.20
2011,01,15,06,53,7.20
2011,01,15,06,54,7.10
2011,01,15,06,55,7.10
2011,01,15,06,56,7.20
2011,01,15,06,57,7.20
2011,01,15,06,58,7.20
2011,01,15,06,59,7.10
2011,01,15,07,00,7.00
2011,01,15,07,01,7.00
2011,01,15,07,02,6.90
2011,01,15,07,03,7.00
2011,01,15,07,04,7.10
2011,01,15,07,05,7.20
2011,01,15,07,06,7.20
2011,01,15,07,07,7.20
2011,01,15,07,08,7.20
2011,01,15,07,09,7.30
2011,01,15,07,10,7.40
2011,01,15,07,11,7.40
2011,01,15,07,12,7.40
2011,01,15,07,13,7.40
2011,01,15,07,14,7.30
2011,01,15,07,15,7.30
2011,01,15,07,16,7.20
2011,01,15,07,17,7.20
2011,01,15,07,18,7.20
2011,01,15,07,19,7.10
2011,01,15,07,20,7.00
2011,01,15,07,21,7.00
2011,01,15,07,22,6.90
2011,01,15,07,23,6.90
2011,01,15,07,24,7.00
2011,01,15,07,25,7.10
2011,01,15,07,26,7.10
2011,01,15,07,27,7.10
2011,01,15,07,28,7.00
2011,01,15,07,29,6.90
2011,01,15,07,30,7.00
2011,01,15,07,31,7.10
2011,01,15,07,32,7.10
2011,01,15,07,33,7.20
2011,01,15,07,34,7.20
2011,01,15,07,35,7.20
2011,01,15,07,36,7.20
2011,01,15,07,37,7.10
2011,01,15,07,38,7.00
2011,01,15,07,39,7.00
2011,01,15,07,40,6.90
2011,01,15,07,41,6.90
2011,01,15,07,42,6.90
2011,01,15,07,43,6.90
2011,01,15,07,44,6.80
2011,01,15,07,45,6.70
2011,01,15,07,46,6.70
2011,01,15,07,47,6.60
2011,01,15,07,48,6.60
2011,01,15,07,49,6.50
2011,01,15,07,50,6.40
2011,01,15,07,51,6.40
2011,01,15,07,52,6.30
2011,01,15,07,53,6.30
2011,01,15,07,54,6.30
2011,01,15,07,55,6.30
2011,01,15,07,56,6.20
2011,01,15,07,57,6.10
2011,01,15,07,58,6.10
2011,01,15,07,59,6.00
2011,01,15,08,00,6.00
2011,01,15,08,01,5.90
2011,01,15,08,02,5.90
2011,01,15,08,03,5.90
2011,01,15,08,04,5.90
2011,01,15,08,05,5.90
2011,01,15,08,06,5.90
2011,01,15,08,07,5.90
2011,01,15,08,08,5.80
2011,01,15,08,09,5.80
2011,01,15,08,10,5.80
2011,01,15,08,11,5.70
2011,01,15,08,12,5.70
2011,01,15,08,13,5.70
2011,01,15,08,14,5.70
2011,01,15,08,15,5.70
2011,01,15,08,16,5.70
2011,01,15,08,17,5.70
2011,01,15,08,18,5.70
2011,01,15,08,19,5.70
2011,01,15,08,20,5.70
2011,01,15,08,21,5.70
2011,01,15,08,22,5.70
2011,01,15,08,23,5.70
2011,01,15,08,24,5.60
2011,01,15,08,25,5.60
2011,01,15,08,26,5.60
2011,01,15,08,27,5.60
2011,01,15,08,28,5.50
2011,01,15,08,29,5.50
2011,01,15,08,30,5.40
2011,01,15,08,31,5.40
2011,01,15,08,32,5.40
2011,01,15,08,33,5.40
2011,01,15,08,34,5.40
2011,01,15,08,35,5.30
2011,01,15,08,36,5.30
2011,01,15,08,37,5.20
2011,01,15,08,38,5.20
2011,01,15,08,39,5.20
2011,01,15,08,40,5.10
2011,01,15,08,41,5.10
2011,01,15,08,42,5.10
2011,01,15,08,43,5.10
2011,01,15,08,44,5.10
2011,01,15,08,45,5.10
2011,01,15,08,46,5.10
2011,01,15,08,47,5.10
2011,01,15,08,48,5.10
2011,01,15,08,49,5.10
2011,01,15,08,50,5.10
2011,01,15,08,51,5.10
2011,01,15,08,52,5.10
2011,01,15,08,53,5.10
2011,01,15,08,54,5.10
2011,01,15,08,55,5.10
2011,01,15,08,56,5.20
2011,01,15,08,57,5.20
2011,01,15,08,58,5.30
2011,01,15,08,59,5.30
2011,01,15,09,00,5.30
2011,01,15,09,01,5.30
2011,01,15,09,02,5.30
2011,01,15,09,03,5.30
2011,01,15,09,04,5.30
2011,01,15,09,05,5.30
2011,01,15,09,06,5.30
2011,01,15,09,07,5.30
2011,01,15,09,08,5.20
2011,01,15,09,09,5.20
2011,01,15,09,10,5.20
2011,01,15,09,11,5.20
2011,01,15,09,12,5.20
2011,01,15,09,13,5.10
2011,01,15,09,14,5.10
2011,01,15,09,15,5.10
2011,01,15,09,16,5.10
2011,01,15,09,17,5.10
2011,01,15,09,18,5.20
2011,01,15,09,19,5.30
2011,01,15,09,20,5.30
2011,01,15,09,21,5.20
2011,01,15,09,22,5.20
2011,01,15,09,23,5.20
2011,01,15,09,24,5.20
2011,01,15,09,25,5.20
2011,01,15,09,26,5.30
2011,01,15,09,27,5.30
2011,01,15,09,28,5.30
2011,01,15,09,29,5.30
2011,01,15,09,30,5.40
2011,01,15,09,31,5.40
2011,01,15,09,32,5.40
2011,01,15,09,33,5.40
2011,01,15,09,34,5.30
2011,01,15,09,35,5.30
2011,01,15,09,36,5.30
2011,01,15,09,37,5.30
2011,01,15,09,38,5.40
2011,01,15,09,39,5.40
2011,01,15,09,40,5.40
2011,01,15,09,41,5.40
2011,01,15,09,42,5.40
2011,01,15,09,43,5.40
2011,01,15,09,44,5.40
2011,01,15,09,45,5.40
2011,01,15,09,46,5.40
2011,01,15,09,47,5.30
2011,01,15,09,48,5.30
2011,01,15,09,49,5.30
2011,01,15,09,50,5.30
2011,01,15,09,51,5.40
2011,01,15,09,52,5.40
2011,01,15,09,53,5.40
2011,01,15,09,54,5.40
2011,01,15,09,55,5.40
2011,01,15,09,56,5.40
2011,01,15,09,57,5.50
2011,01,15,09,58,5.50
2011,01,15,09,59,5.60
2011,01,15,10,00,5.60
2011,01,15,10,01,5.70
2011,01,15,10,02,5.70
2011,01,15,10,03,5.70
2011,01,15,10,04,5.70
2011,01,15,10,05,5.80
2011,01,15,10,06,5.80
2011,01,15,10,07,5.70
2011,01,15,10,08,5.70
2011,01,15,10,09,5.70
2011,01,15,10,10,5.70
2011,01,15,10,11,5.70
2011,01,15,10,12,5.60
2011,01,15,10,13,5.60
2011,01,15,10,14,5.60
2011,01,15,10,15,5.70
2011,01,15,10,16,5.70
2011,01,15,10,17,5.70
2011,01,15,10,18,5.80
2011,01,15,10,19,5.80
2011,01,15,10,20,5.80
2011,01,15,10,21,5.90
2011,01,15,10,22,5.90
2011,01,15,10,23,5.90
2011,01,15,10,24,6.00
2011,01,15,10,25,6.00
2011,01,15,10,26,6.00
2011,01,15,10,27,6.00
2011,01,15,10,28,6.10
2011,01,15,10,29,6.10
2011,01,15,10,30,6.10
2011,01,15,10,31,6.10
2011,01,15,10,32,6.10
2011,01,15,10,33,6.10
2011,01,15,10,34,6.00
2011,01,15,10,35,6.00
2011,01,15,10,36,6.00
2011,01,15,10,37,6.00
2011,01,15,10,38,6.00
2011,01,15,10,39,6.10
2011,01,15,10,40,6.10
2011,01,15,10,41,6.00
2011,01,15,10,42,6.00
2011,01,15,10,43,6.00
2011,01,15,10,44,6.00
2011,01,15,10,45,6.00
2011,01,15,10,46,6.00
2011,01,15,10,47,5.90
2011,01,15,10,48,5.90
2011,01,15,10,49,5.90
2011,01,15,10,50,5.90
2011,01,15,10,51,5.90
2011,01,15,10,52,5.90
2011,01,15,10,53,5.90
2011,01,15,10,54,5.90
2011,01,15,10,55,5.90
2011,01,15,10,56,5.90
2011,01,15,10,57,5.90
2011,01,15,10,58,5.90
2011,01,15,10,59,5.90
2011,01,15,11,00,5.90
2011,01,15,11,01,5.90
2011,01,15,11,02,5.90
2011,01,15,11,03,5.90
2011,01,15,11,04,5.90
2011,01,15,11,05,5.90
2011,01,15,11,06,5.90
2011,01,15,11,07,5.90
2011,01,15,11,08,6.00
2011,01,15,11,09,6.00
2011,01,15,11,10,6.00
2011,01,15,11,11,6.10
2011,01,15,11,12,6.10
2011,01,15,11,13,6.10
2011,01,15,11,14,6.10
2011,01,15,11,15,6.10
2011,01,15,11,16,6.10
2011,01,15,11,17,6.20
2011,01,15,11,18,6.20
2011,01,15,11,19,6.10
2011,01,15,11,20,6.10
2011,01,15,11,21,6.10
2011,01,15,11,22,6.10
2011,01,15,11,23,6.10
2011,01,15,11,24,6.10
2011,01,15,11,25,6.10
2011,01,15,11,26,6.10
2011,01,15,11,27,6.20
2011,01,15,11,28,6.20
2011,01,15,11,29,6.20
2011,01,15,11,30,6.20
2011,01,15,11,31,6.10
2011,01,15,11,32,6.10
2011,01,15,11,33,6.10
2011,01,15,11,34,6.10
2011,01,15,11,35,6.10
2011,01,15,11,36,6.10
2011,01,15,11,37,6.10
2011,01,15,11,38,6.10
2011,01,15,11,39,6.10
2011,01,15,11,40,6.10
2011,01,15,11,41,6.10
2011,01,15,11,42,6.10
2011,01,15,11,43,6.10
2011,01,15,11,44,6.10
2011,01,15,11,45,6.20
2011,01,15,11,46,6.10
2011,01,15,11,47,6.10
2011,01,15,11,48,6.10
2011,01,15,11,49,6.10
2011,01,15,11,50,6.10
2011,01,15,11,51,6.10
2011,01,15,11,52,6.00
2011,01,15,11,53,6.00
2011,01,15,11,54,6.00
2011,01,15,11,55,6.00
2011,01,15,11,56,6.00
2011,01,15,11,57,6.10
2011,01,15,11,58,6.10
2011,01,15,11,59,6.10
2011,01,15,12,00,6.10
2011,01,15,12,01,6.10
2011,01,15,12,02,6.10
2011,01,15,12,03,6.10
2011,01,15,12,04,6.10
2011,01,15,12,05,6.10
2011,01,15,12,06,6.10
2011,01,15,12,07,6.10
2011,01,15,12,08,6.10
2011,01,15,12,09,6.10
2011,01,15,12,10,6.10
2011,01,15,12,11,6.00
2011,01,15,12,12,6.00
2011,01,15,12,13,6.00
2011,01,15,12,14,6.00
2011,01,15,12,15,5.90
2011,01,15,12,16,5.90
2011,01,15,12,17,5.90
2011,01,15,12,18,5.90
2011,01,15,12,19,5.90
2011,01,15,12,20,5.80
2011,01,15,12,21,5.80
2011,01,15,12,22,5.70
2011,01,15,12,23,5.70
2011,01,15,12,24,5.70
2011,01,15,12,25,5.70
2011,01,15,12,26,5.70
2011,01,15,12,27,5.60
2011,01,15,12,28,5.60
2011,01,15,12,29,5.60
2011,01,15,12,30,5.60
2011,01,15,12,31,5.70
2011,01,15,12,32,5.70
2011,01,15,12,33,5.70
2011,01,15,12,34,5.70
2011,01,15,12,35,5.70
2011,01,15,12,36,5.70
2011,01,15,12,37,5.70
2011,01,15,12,38,5.70
2011,01,15,12,39,5.70
2011,01,15,12,40,5.70
2011,01,15,12,41,5.70
2011,01,15,12,42,5.80
2011,01,15,12,43,5.80
2011,01,15,12,44,5.70
2011,01,15,12,45,5.70
2011,01,15,12,46,5.70
2011,01,15,12,47,5.70
2011,01,15,12,48,5.70
2011,01,15,12,49,5.60
2011,01,15,12,50,5.60
2011,01,15,12,51,5.60
2011,01,15,12,52,5.50
2011,01,15,12,53,5.50
2011,01,15,12,54,5.50
2011,01,15,12,55,5.50
2011,01,15,12,56,5.50
2011,01,15,12,57,5.50
2011,01,15,12,58,5.50
2011,01,15,12,59,5.50
2011,01,15,13,00,5.50
2011,01,15,13,01,5.60
2011,01,15,13,02,5.60
2011,01,15,13,03,5.60
2011,01,15,13,04,5.60
2011,01,15,13,05,5.60
2011,01,15,13,06,5.60
2011,01,15,13,07,5.60
2011,01,15,13,08,5.60
2011,01,15,13,09,5.50
2011,01,15,13,10,5.50
2011,01,15,13,11,5.50
2011,01,15,13,12,5.40
2011,01,15,13,13,5.40
2011,01,15,13,14,5.40
2011,01,15,13,15,5.40
2011,01,15,13,16,5.40
2011,01,15,13,17,5.40
2011,01,15,13,18,5.40
2011,01,15,13,19,5.40
2011,01,15,13,20,5.40
2011,01,15,13,21,5.40
2011,01,15,13,22,5.50
2011,01,15,13,23,5.50
2011,01,15,13,24,5.50
2011,01,15,13,25,5.50
2011,01,15,13,26,5.50
2011,01,15,13,27,5.60
2011,01,15,13,28,5.60
2011,01,15,13,29,5.60
2011,01,15,13,30,5.60
2011,01,15,13,31,5.60
2011,01,15,13,32,5.60
2011,01,15,13,33,5.60
2011,01,15,13,34,5.60
2011,01,15,13,35,5.60
2011,01,15,13,36,5.70
2011,01,15,13,37,5.70
2011,01,15,13,38,5.60
2011,01,15,13,39,5.60
2011,01,15,13,40,5.60
2011,01,15,13,41,5.60
2011,01,15,13,42,5.60
2011,01,15,13,43,5.60
2011,01,15,13,44,5.60
2011,01,15,13,45,5.70
2011,01,15,13,46,5.70
2011,01,15,13,47,5.70
2011,01,15,13,48,5.80
2011,01,15,13,49,5.80
2011,01,15,13,50,5.80
2011,01,15,13,51,5.80
2011,01,15,13,52,5.90
2011,01,15,13,53,5.90
2011,01,15,13,54,5.90
2011,01,15,13,55,5.90
2011,01,15,13,56,5.80
2011,01,15,13,57,5.80
2011,01,15,13,58,5.80
2011,01,15,13,59,5.80
2011,01,15,14,00,5.70
2011,01,15,14,01,5.70
2011,01,15,14,02,5.70
2011,01,15,14,03,5.70
2011,01,15,14,04,5.70
2011,01,15,14,05,5.70
2011,01,15,14,06,5.80
2011,01,15,14,07,5.80
2011,01,15,14,08,5.80
2011,01,15,14,09,5.80
2011,01,15,14,10,5.70
2011,01,15,14,11,5.70
2011,01,15,14,12,5.70
2011,01,15,14,13,5.70
2011,01,15,14,14,5.70
2011,01,15,14,15,5.70
2011,01,15,14,16,5.80
2011,01,15,14,17,5.80
2011,01,15,14,18,5.80
2011,01,15,14,19,5.80
2011,01,15,14,20,5.80
2011,01,15,14,21,5.80
2011,01,15,14,22,5.80
2011,01,15,14,23,5.80
2011,01,15,14,24,5.80
2011,01,15,14,25,5.80
2011,01,15,14,26,5.80
2011,01,15,14,27,5.80
2011,01,15,14,28,5.80
2011,01,15,14,29,5.80
2011,01,15,14,30,5.80
2011,01,15,14,31,5.80
2011,01,15,14,32,5.80
2011,01,15,14,33,5.80
2011,01,15,14,34,5.80
2011,01,15,14,35,5.80
2011,01,15,14,36,5.80
2011,01,15,14,37,5.80
2011,01,15,14,38,5.80
2011,01,15,14,39,5.80
2011,01,15,14,40,5.80
2011,01,15,14,41,5.80
2011,01,15,14,42,5.80
2011,01,15,14,43,5.80
2011,01,15,14,44,5.80
2011,01,15,14,45,5.80
2011,01,15,14,46,5.80
2011,01,15,14,47,5.80
2011,01,15,14,48,5.80
2011,01,15,14,49,5.80
2011,01,15,14,50,5.90
2011,01,15,14,51,5.90
2011,01,15,14,52,5.90
2011,01,15,14,53,5.90
2011,01,15,14,54,5.80
2011,01,15,14,55,5.90
2011,01,15,14,56,5.90
2011,01,15,14,57,5.80
2011,01,15,14,58,5.80
2011,01,15,14,59,5.80
2011,01,15,15,00,5.80
2011,01,15,15,01,5.90
2011,01,15,15,02,5.90
2011,01,15,15,03,5.90
2011,01,15,15,04,5.90
2011,01,15,15,05,5.90
2011,01,15,15,06,5.90
2011,01,15,15,07,5.90
2011,01,15,15,08,6.00
2011,01,15,15,09,6.00
2011,01,15,15,10,6.00
2011,01,15,15,11,6.10
2011,01,15,15,12,6.10
2011,01,15,15,13,6.10
2011,01,15,15,14,6.10
2011,01,15,15,15,6.10
2011,01,15,15,16,6.10
2011,01,15,15,17,6.20
2011,01,15,15,18,6.20
2011,01,15,15,19,6.20
2011,01,15,15,20,6.20
2011,01,15,15,21,6.20
2011,01,15,15,22,6.20
2011,01,15,15,23,6.20
2011,01,15,15,24,6.20
2011,01,15,15,25,6.20
2011,01,15,15,26,6.20
2011,01,15,15,27,6.20
2011,01,15,15,28,6.20
2011,01,15,15,29,6.20
2011,01,15,15,30,6.20
2011,01,15,15,31,6.20
2011,01,15,15,32,6.20
2011,01,15,15,33,6.20
2011,01,15,15,34,6.20
2011,01,15,15,35,6.20
2011,01,15,15,36,6.20
2011,01,15,15,37,6.20
2011,01,15,15,38,6.20
2011,01,15,15,39,6.20
2011,01,15,15,40,6.20
2011,01,15,15,41,6.20
2011,01,15,15,42,6.20
2011,01,15,15,43,6.20
2011,01,15,15,44,6.30
2011,01,15,15,45,6.30
2011,01,15,15,46,6.30
2011,01,15,15,47,6.30
2011,01,15,15,48,6.30
2011,01,15,15,49,6.30
2011,01,15,15,50,6.30
2011,01,15,15,51,6.30
2011,01,15,15,52,6.30
2011,01,15,15,53,6.30
2011,01,15,15,54,6.30
2011,01,15,15,55,6.30
2011,01,15,15,56,6.30
2011,01,15,15,57,6.30
2011,01,15,15,58,6.30
2011,01,15,15,59,6.30
2011,01,15,16,00,6.30
2011,01,15,16,01,6.20
2011,01,15,16,02,6.20
2011,01,15,16,03,6.20
2011,01,15,16,04,6.20
2011,01,15,16,05,6.20
2011,01,15,16,06,6.20
2011,01,15,16,07,6.20
2011,01,15,16,08,6.20
2011,01,15,16,09,6.10
2011,01,15,16,10,6.10
2011,01,15,16,11,6.20
2011,01,15,16,12,6.10
2011,01,15,16,13,6.20
2011,01,15,16,14,6.20
2011,01,15,16,15,6.20
2011,01,15,16,16,6.20
2011,01,15,16,17,6.20
2011,01,15,16,18,6.20
2011,01,15,16,19,6.20
2011,01,15,16,20,6.20
2011,01,15,16,21,6.20
2011,01,15,16,22,6.20
2011,01,15,16,23,6.20
2011,01,15,16,24,6.20
2011,01,15,16,25,6.20
2011,01,15,16,26,6.20
2011,01,15,16,27,6.20
2011,01,15,16,28,6.20
2011,01,15,16,29,6.20
2011,01,15,16,30,6.20
2011,01,15,16,31,6.20
2011,01,15,16,32,6.20
2011,01,15,16,33,6.20
2011,01,15,16,34,6.20
2011,01,15,16,35,6.20
2011,01,15,16,36,6.20
2011,01,15,16,37,6.20
2011,01,15,16,38,6.20
2011,01,15,16,39,6.20
2011,01,15,16,40,6.20
2011,01,15,16,41,6.20
2011,01,15,16,42,6.20
2011,01,15,16,43,6.20
2011,01,15,16,44,6.20
2011,01,15,16,45,6.20
2011,01,15,16,46,6.20
2011,01,15,16,47,6.20
2011,01,15,16,48,6.20
2011,01,15,16,49,6.20
2011,01,15,16,50,6.20
2011,01,15,16,51,6.20
2011,01,15,16,52,6.20
2011,01,15,16,53,6.20
2011,01,15,16,54,6.20
2011,01,15,16,55,6.20
2011,01,15,16,56,6.20
2011,01,15,16,57,6.20
2011,01,15,16,58,6.20
2011,01,15,16,59,6.20
2011,01,15,17,00,6.20
2011,01,15,17,01,6.20
2011,01,15,17,02,6.30
2011,01,15,17,03,6.30
2011,01,15,17,04,6.30
2011,01,15,17,05,6.30
2011,01,15,17,06,6.30
2011,01,15,17,07,6.20
2011,01,15,17,08,6.20
2011,01,15,17,09,6.20
2011,01,15,17,10,6.20
2011,01,15,17,11,6.20
2011,01,15,17,12,6.20
2011,01,15,17,13,6.20
2011,01,15,17,14,6.20
2011,01,15,17,15,6.10
2011,01,15,17,16,6.10
2011,01,15,17,17,6.10
2011,01,15,17,18,6.10
2011,01,15,17,19,6.10
2011,01,15,17,20,6.10
2011,01,15,17,21,6.10
2011,01,15,17,22,6.10
2011,01,15,17,23,6.10
2011,01,15,17,24,6.10
2011,01,15,17,25,6.20
2011,01,15,17,26,6.20
2011,01,15,17,27,6.20
2011,01,15,17,28,6.20
2011,01,15,17,29,6.20
2011,01,15,17,30,6.20
2011,01,15,17,31,6.20
2011,01,15,17,32,6.20
2011,01,15,17,33,6.20
2011,01,15,17,34,6.20
2011,01,15,17,35,6.20
2011,01,15,17,36,6.20
2011,01,15,17,37,6.20
2011,01,15,17,38,6.20
2011,01,15,17,39,6.20
2011,01,15,17,40,6.20
2011,01,15,17,41,6.20
2011,01,15,17,42,6.20
2011,01,15,17,43,6.20
2011,01,15,17,44,6.20
2011,01,15,17,45,6.20
2011,01,15,17,46,6.20
2011,01,15,17,47,6.20
2011,01,15,17,48,6.20
2011,01,15,17,49,6.20
2011,01,15,17,50,6.20
2011,01,15,17,51,6.20
2011,01,15,17,52,6.20
2011,01,15,17,53,6.20
2011,01,15,17,54,6.10
2011,01,15,17,55,6.10
2011,01,15,17,56,6.20
2011,01,15,17,57,6.20
2011,01,15,17,58,6.20